Location: East Guldeford
(50.9500°N, 0.7500°E)
Time: 08:49:58
(UTC+00:00)

Cosmos 1328 Rocket - Pass Details

Date: 12 May 2021
Orbit: 600 x 628 km, 82.5° (Epoch: 16 June)

Event Time Altitude Azimuth Distance (km) Brightness Sun altitude
Rises 20:59:56 0° 195° (SSW) 2,901 6.7 -11.0°
Reaches altitude 10° 21:02:10 10° 198° (SSW) 1,996 5.9 -11.2°
Maximum altitude 21:06:35 70° 282° (WNW) 668 3.9 -11.6°
Drops below altitude 10° 21:11:00 10° 6° (N) 1,999 6.8 -12.1°
Sets 21:13:15 0° 9° (N) 2,905 7.7 -12.3°
